Location: Cactus School
(34.5700°N, 118.0931°W)
Time: 09:59:03
(UTC-07:00)

S-56A Canister/Altair - Pass Details

Date: 19 April 2024
Orbit: 638 x 2488 km, 38.9° (Epoch: 29 May)

Event Time Altitude Azimuth Distance (km) Brightness Sun altitude
Rises 16:12:02 0° 218° (SW) 2,940 11.1 39.1°
Reaches altitude 10° 16:14:20 10° 208° (SSW) 2,094 10.4 38.6°
Maximum altitude 16:18:35 34° 143° (SE) 1,247 8.7 37.8°
Drops below altitude 10° 16:24:00 10° 80° (E) 2,685 9.9 36.7°
Sets 16:27:19 0° 72° (ENE) 3,916 10.7 36.0°
